ABS-2

Last updated on Sun Jul 06 2025 00:02:44 GMT+0000 (Coordinated Universal Time)

1 39508U 14006A 25186.50827191 -.00000070 00000+0 00000+0 0 9997 2 39508 0.0329 80.5512 0003828 26.0478 75.0442 1.00272036 41806
UTC large
Height (km)
Speed (km/s)
/
Latitude / Longitude
Inclination (degrees)
Orbital Period (minutes)
Azimuth
Elevation
Range (km)
Doppler Factor

Next 0 passes for location: London (51.5072 / 0.1276)

Sorry there are no passes over London.